Flight Track Log - Related Links

Times and Time Zones

All times are in EDT time to prevent confusion due to time zone crossing. See the LYM1725 flight status page for this flight to view local times or setup timezone preferences in your user account.


Time Position Orientation Groundspeed Altitude Reporting Facility
EDT Latitude Longitude Course Direction KTS MPH feet Rate Location/Type
Mon 09:02:47 PM 43.0156 -108.3808 137° Southeast 221 254 10,800  Level Salt Lake Center
Mon 09:03:49 PM 42.9831 -108.3125 123° Southeast 225 259 12,800 1,512 Climbing Salt Lake Center
Mon 09:04:50 PM 42.9403 -108.2358 127° Southeast 228 262 13,900 1,073 Climbing Salt Lake Center
Mon 09:05:52 PM 42.8994 -108.1681 129° Southeast 234 269 15,000 1,366 Climbing Salt Lake Center
Mon 09:06:53 PM 42.8572 -108.0906 127° Southeast 252 290 16,700 1,659 Climbing Salt Lake Center
Mon 09:07:55 PM 42.8072 -108.0011 127° Southeast 263 303 18,400 1,512 Climbing Salt Lake Center
Mon 09:08:00 PM 42.7460 -108.0593 137° Southeast  Level Estimated
Mon 09:08:56 PM 42.7628 -107.9250 128° Southeast 265 305 19,800  Level Salt Lake Center
Mon 09:09:58 PM 42.7069 -107.8417 132° Southeast 267 307 21,000 585 Climbing Salt Lake Center
Mon 09:10:59 PM 42.6564 -107.7575 129° Southeast 287 330 21,000 49 Level Salt Lake Center
Mon 09:12:01 PM 42.6011 -107.6678 130° Southeast 312 359 21,100  Climbing Salt Lake Center
Mon 09:13:02 PM 42.5375 -107.5614 129° Southeast 323 372 21,000 -49 Descending Salt Lake Center
Mon 09:14:03 PM 42.4806 -107.4733 131° Southeast 324 373 21,000  Level Salt Lake Center
Mon 09:15:05 PM 42.4200 -107.3686 128° Southeast 320 368 21,000 44 Level Salt Lake Center
Mon 09:16:20 PM 42.3636 -107.2528 123° Southeast 323 372 21,100 44 Climbing Denver Center
Mon 09:17:22 PM 42.3022 -107.1369 126° Southeast 330 380 21,100 -48 Level Denver Center
Mon 09:18:24 PM 42.2497 -107.0381 126° Southeast 334 384 21,000 -97 Descending Denver Center
Mon 09:19:26 PM 42.1897 -106.9175 124° Southeast 341 392 20,900 48 Descending Denver Center
Mon 09:20:28 PM 42.1439 -106.8097 120° Southeast 345 397 21,100 49 Climbing Denver Center
Mon 09:21:29 PM 42.0983 -106.6778 115° Southeast 349 402 21,000 -49 Descending Denver Center
Mon 09:22:31 PM 42.0600 -106.5678 115° Southeast 345 397 21,000 -48 Level Denver Center
Mon 09:23:33 PM 42.0169 -106.4519 117° Southeast 323 372 20,900  Descending Denver Center
Mon 09:24:35 PM 41.9608 -106.3856 139° Southeast 295 339 21,000 44 Climbing Denver Center
Mon 09:25:49 PM 41.9011 -106.3247 143° Southeast 284 327 21,000  Level Denver Center
Mon 09:26:52 PM 41.8178 -106.2411 143° Southeast 286 329 21,000 -96 Level Denver Center
Mon 09:27:54 PM 41.7511 -106.1694 141° Southeast 278 320 20,800 -537 Descending Denver Center
Mon 09:28:55 PM 41.6883 -106.1042 142° Southeast 292 336 19,900 -732 Descending Denver Center
Mon 09:29:57 PM 41.6078 -106.0217 143° Southeast 318 366 19,300 -387 Descending Denver Center
Mon 09:30:59 PM 41.5397 -105.9506 142° Southeast 323 372 19,100 -339 Descending Denver Center
Mon 09:32:01 PM 41.4636 -105.8661 140° Southeast 320 368 18,600 -919 Descending Denver Center
Mon 09:33:03 PM 41.4008 -105.7919 138° Southeast 320 368 17,200 -1,065 Descending Denver Center
Mon 09:34:05 PM 41.3267 -105.7069 139° Southeast 318 366 16,400 -484 Descending Denver Center
Mon 09:35:07 PM 41.2778 -105.6164 126° Southeast 327 376 16,200 -484 Descending Denver Center
Mon 09:36:09 PM 41.2192 -105.5325 133° Southeast 321 369 15,400 -774 Descending Denver Center
Mon 09:37:11 PM 41.1519 -105.4319 132° Southeast 325 374 14,600 -823 Descending Denver Center
Mon 09:38:13 PM 41.0928 -105.3492 133° Southeast 325 374 13,700 -732 Descending Denver Center
Mon 09:39:14 PM 41.0289 -105.2508 131° Southeast 318 366 13,100 -293 Descending Denver Center
Mon 09:40:16 PM 40.9783 -105.1758 132° Southeast 306 352 13,100  Level Denver Center
Mon 09:41:18 PM 40.9169 -105.0811 131° Southeast 292 336 13,100  Level Denver Center
Mon 09:42:20 PM 40.8672 -104.9975 128° Southeast 287 330 13,100 -48 Level Denver Center
Mon 09:43:22 PM 40.8178 -104.9169 129° Southeast 283 326 13,000 -48 Descending Denver Center
Mon 09:44:24 PM 40.7575 -104.8575 143° Southeast 275 316 13,000  Level Denver Center
Mon 09:45:26 PM 40.6772 -104.8550 179° South 265 305 13,000  Level Denver Center
Mon 09:46:28 PM 40.6056 -104.8503 177° South 259 298 13,000 -293 Level Denver Center
Mon 09:47:29 PM 40.5397 -104.8339 169° South 282 325 12,400 -677 Descending Denver Center
Mon 09:48:32 PM 40.4442 -104.8036 166° South 285 328 11,600 -576 Descending Denver Center
Mon 09:49:34 PM 40.3642 -104.7836 169° South 291 335 11,200 -290 Descending Denver Center
Mon 09:50:36 PM 40.2806 -104.7689 172° South 282 325 11,000 -48 Descending Denver Center
Mon 09:51:38 PM 40.2061 -104.7753 184° South 268 308 11,100 44 Climbing Denver Center
Mon 09:52:52 PM 40.1278 -104.7758 180° South 264 304 11,100 -41 Level Denver Center
Mon 09:54:06 PM 40.0489 -104.7989 193° South 248 285 11,000  Descending Denver Center
Mon 09:55:09 PM 39.9881 -104.8122 190° South 267 307 11,100 48 Climbing Denver Center
Mon 09:56:10 PM 39.9342 -104.7547 141° Southeast 266 306 11,100  Level Denver Center
Mon 09:57:12 PM 39.8589 -104.7550 180° South 254 292 11,100 -198 Level Denver Center
Mon 09:59:12 PM 39.7167 -104.8000 194° South 257 296 10,500 -500 Descending Denver TRACON
Mon 10:00:12 PM 39.6500 -104.7833 169° South 262 302 9,600 -1,000 Descending Denver TRACON
Mon 10:01:12 PM 39.6833 -104.7000 63° Northeast 240 276 8,500 -950 Descending Denver TRACON
Mon 10:02:12 PM 39.7167 -104.6667 38° Northeast 199 229 7,700 -1,048 Descending Denver TRACON
Mon 10:03:18 PM 39.7833 -104.6667 360° North 182 209 6,300 -1,050 Descending Denver TRACON
Mon 10:04:12 PM 39.8167 -104.6667 360° North 165 190 5,600 -778 Descending Denver TRACON
Mon 10:06:00 PM 39.8500 -104.6667 355° North  Level FlightAware Approximate

Login

Don't have an account? Register now (free) for customized features, flight alerts, and more!